Time,TemperatureF,DewpointF,PressureIn,WindDirection,WindDirectionDegrees,WindSpeedMPH,WindSpeedGustMPH,Humidity,HourlyPrecipIn,Conditions,Clouds,dailyrainin,SoftwareType,DateUTC
2013-05-25 00:01:00,48.4,47.8,29.85,North,0,0.0,0.0,98,0.02,,,0.00,pywws,2013-05-25 04:01:00,
2013-05-25 00:05:00,48.4,47.8,29.85,North,0,0.0,0.0,98,0.02,,,0.00,pywws,2013-05-25 04:05:00,
2013-05-25 00:06:00,48.4,47.8,29.85,North,0,0.0,0.0,98,0.02,,,0.00,pywws,2013-05-25 04:06:00,
2013-05-25 00:09:00,48.2,47.7,29.85,East,90,0.0,0.0,98,0.01,,,0.00,pywws,2013-05-25 04:09:00,
2013-05-25 00:15:00,48.4,47.8,29.85,North,0,0.0,0.0,98,0.02,,,0.01,pywws,2013-05-25 04:15:00,
2013-05-25 00:20:00,48.2,47.7,29.85,North,0,0.0,0.0,98,0.02,,,0.01,pywws,2013-05-25 04:20:00,
2013-05-25 00:22:00,48.4,47.8,29.85,North,0,0.0,0.0,98,0.02,,,0.01,pywws,2013-05-25 04:22:00,
2013-05-25 00:28:00,48.6,48.0,29.87,North,0,0.0,0.0,98,0.02,,,0.01,pywws,2013-05-25 04:28:00,
2013-05-25 00:35:00,48.6,48.0,29.86,North,0,0.0,0.0,98,0.01,,,0.01,pywws,2013-05-25 04:35:00,
2013-05-25 00:41:00,48.2,47.7,29.85,North,0,0.0,0.0,98,0.02,,,0.02,pywws,2013-05-25 04:41:00,
2013-05-25 00:51:00,48.2,47.7,29.85,North,0,0.0,0.0,98,0.02,,,0.02,pywws,2013-05-25 04:51:00,
2013-05-25 00:56:00,48.0,47.8,29.83,NW,315,0.0,0.0,99,0.04,,,0.04,pywws,2013-05-25 04:56:00,
2013-05-25 01:02:00,47.8,47.6,29.85,North,0,0.0,0.0,99,0.04,,,0.04,pywws,2013-05-25 05:02:00,
2013-05-25 01:08:00,48.0,47.8,29.85,North,0,0.0,0.0,99,0.04,,,0.04,pywws,2013-05-25 05:08:00,
2013-05-25 01:13:00,48.0,47.8,29.85,NW,315,0.0,0.0,99,0.04,,,0.05,pywws,2013-05-25 05:13:00,
2013-05-25 01:19:00,47.7,47.4,29.85,North,0,0.0,0.0,99,0.04,,,0.05,pywws,2013-05-25 05:19:00,
2013-05-25 01:25:00,47.8,47.6,29.84,North,0,0.0,0.0,99,0.04,,,0.05,pywws,2013-05-25 05:25:00,
2013-05-25 01:31:00,47.7,47.4,29.84,NE,45,0.0,3.1,99,0.04,,,0.05,pywws,2013-05-25 05:31:00,
2013-05-25 01:36:00,47.7,47.4,29.84,North,0,0.0,0.0,99,0.04,,,0.05,pywws,2013-05-25 05:36:00,
2013-05-25 01:42:00,47.8,47.6,29.83,East,90,0.0,0.0,99,0.02,,,0.05,pywws,2013-05-25 05:42:00,
2013-05-25 01:48:00,47.5,47.2,29.83,East,90,0.0,0.0,99,0.01,,,0.05,pywws,2013-05-25 05:48:00,
2013-05-25 01:53:00,47.5,47.2,29.83,North,0,0.0,0.0,99,0.01,,,0.05,pywws,2013-05-25 05:53:00,
2013-05-25 01:59:00,47.3,47.0,29.83,NE,45,0.0,0.7,99,0.01,,,0.05,pywws,2013-05-25 05:59:00,
2013-05-25 02:04:00,47.3,47.0,29.83,South,180,0.0,0.0,99,0.01,,,0.05,pywws,2013-05-25 06:04:00,
2013-05-25 02:10:00,47.5,47.2,29.82,North,0,0.0,0.0,99,0.01,,,0.05,pywws,2013-05-25 06:10:00,
2013-05-25 02:16:00,47.5,47.2,29.82,North,0,0.0,0.0,99,0.00,,,0.05,pywws,2013-05-25 06:16:00,
2013-05-25 02:22:00,47.3,47.0,29.82,North,0,0.0,0.7,99,0.01,,,0.06,pywws,2013-05-25 06:22:00,
2013-05-25 02:28:00,47.5,47.2,29.83,North,0,0.0,0.0,99,0.01,,,0.06,pywws,2013-05-25 06:28:00,
2013-05-25 02:33:00,47.5,47.2,29.82,North,0,0.0,0.0,99,0.01,,,0.06,pywws,2013-05-25 06:33:00,
2013-05-25 02:40:00,47.3,47.0,29.82,North,0,0.0,0.0,99,0.01,,,0.06,pywws,2013-05-25 06:40:00,
2013-05-25 02:45:00,47.5,47.2,29.82,North,0,0.0,0.0,99,0.02,,,0.07,pywws,2013-05-25 06:45:00,
2013-05-25 02:51:00,47.1,46.9,29.81,North,0,0.0,0.0,99,0.04,,,0.08,pywws,2013-05-25 06:51:00,
2013-05-25 02:56:00,47.1,46.9,29.81,NE,45,0.0,0.7,99,0.04,,,0.08,pywws,2013-05-25 06:56:00,
2013-05-25 03:02:00,47.1,46.9,29.81,North,0,0.0,0.0,99,0.05,,,0.09,pywws,2013-05-25 07:02:00,
2013-05-25 03:08:00,47.1,46.9,29.80,NE,45,0.0,0.0,99,0.05,,,0.09,pywws,2013-05-25 07:08:00,
2013-05-25 03:13:00,47.1,46.9,29.80,North,0,0.0,0.0,99,0.05,,,0.09,pywws,2013-05-25 07:13:00,
2013-05-25 03:19:00,47.3,47.0,29.80,East,90,0.0,0.0,99,0.05,,,0.11,pywws,2013-05-25 07:19:00,
2013-05-25 03:24:00,47.1,46.9,29.80,North,0,0.0,0.0,99,0.05,,,0.11,pywws,2013-05-25 07:24:00,
2013-05-25 03:30:00,47.3,47.0,29.81,East,90,0.0,0.0,99,0.05,,,0.11,pywws,2013-05-25 07:30:00,
2013-05-25 03:36:00,47.5,47.2,29.80,East,90,0.0,0.0,99,0.05,,,0.11,pywws,2013-05-25 07:36:00,
2013-05-25 03:41:00,47.5,47.2,29.80,NW,315,0.0,0.0,99,0.05,,,0.11,pywws,2013-05-25 07:41:00,
2013-05-25 03:47:00,47.5,47.2,29.80,North,0,0.0,0.0,99,0.04,,,0.11,pywws,2013-05-25 07:47:00,
2013-05-25 03:52:00,47.5,47.2,29.79,North,0,0.0,0.0,99,0.02,,,0.11,pywws,2013-05-25 07:52:00,
2013-05-25 03:58:00,47.5,47.2,29.79,North,0,0.0,0.0,99,0.02,,,0.11,pywws,2013-05-25 07:58:00,
2013-05-25 04:04:00,47.5,47.2,29.78,NE,45,0.0,0.0,99,0.01,,,0.11,pywws,2013-05-25 08:04:00,
2013-05-25 04:09:00,47.5,47.2,29.79,North,0,0.0,0.7,99,0.01,,,0.11,pywws,2013-05-25 08:09:00,
2013-05-25 04:15:00,47.7,47.4,29.79,North,0,0.0,0.0,99,0.01,,,0.11,pywws,2013-05-25 08:15:00,
2013-05-25 04:20:00,47.7,47.4,29.78,North,0,0.0,0.0,99,0.00,,,0.11,pywws,2013-05-25 08:20:00,
2013-05-25 04:26:00,47.5,47.2,29.79,North,0,0.0,0.0,99,0.00,,,0.11,pywws,2013-05-25 08:26:00,
2013-05-25 04:32:00,47.3,47.0,29.80,North,0,0.0,0.7,99,0.00,,,0.11,pywws,2013-05-25 08:32:00,
2013-05-25 04:37:00,47.7,47.4,29.80,North,0,0.0,0.0,99,0.00,,,0.11,pywws,2013-05-25 08:37:00,
2013-05-25 04:43:00,47.5,46.9,29.79,East,90,0.0,0.0,98,0.00,,,0.11,pywws,2013-05-25 08:43:00,
2013-05-25 04:48:00,47.5,46.9,29.80,NE,45,1.6,3.1,98,0.00,,,0.11,pywws,2013-05-25 08:48:00,
2013-05-25 04:54:00,47.5,46.9,29.80,North,0,0.0,0.0,98,0.00,,,0.11,pywws,2013-05-25 08:54:00,
2013-05-25 05:00:00,47.5,46.9,29.80,North,0,0.0,0.7,98,0.00,,,0.11,pywws,2013-05-25 09:00:00,
2013-05-25 05:05:00,47.3,46.8,29.80,East,90,0.0,0.7,98,0.00,,,0.11,pywws,2013-05-25 09:05:00,
2013-05-25 05:11:00,47.3,46.8,29.80,North,0,0.0,0.0,98,0.00,,,0.11,pywws,2013-05-25 09:11:00,
2013-05-25 05:16:00,47.3,46.8,29.80,East,90,0.0,2.2,98,0.00,,,0.11,pywws,2013-05-25 09:16:00,
2013-05-25 05:22:00,47.7,46.9,29.80,North,0,0.0,0.0,97,0.00,,,0.11,pywws,2013-05-25 09:22:00,
2013-05-25 05:28:00,47.7,46.9,29.80,West,270,0.0,0.0,97,0.01,,,0.12,pywws,2013-05-25 09:28:00,
2013-05-25 05:33:00,47.5,46.7,29.80,NW,315,0.0,0.0,97,0.01,,,0.12,pywws,2013-05-25 09:33:00,
2013-05-25 05:39:00,47.7,46.9,29.80,NW,315,0.0,0.0,97,0.01,,,0.12,pywws,2013-05-25 09:39:00,
2013-05-25 05:44:00,47.3,46.8,29.80,NW,315,0.0,0.0,98,0.01,,,0.12,pywws,2013-05-25 09:44:00,
2013-05-25 05:50:00,47.3,46.8,29.80,North,0,0.0,0.0,98,0.01,,,0.12,pywws,2013-05-25 09:50:00,
2013-05-25 05:56:00,47.5,46.9,29.80,North,0,0.0,0.0,98,0.01,,,0.12,pywws,2013-05-25 09:56:00,
2013-05-25 06:01:00,47.3,46.8,29.80,NW,315,0.0,0.0,98,0.01,,,0.12,pywws,2013-05-25 10:01:00,
2013-05-25 06:08:00,47.3,46.8,29.80,North,0,0.0,0.0,98,0.01,,,0.12,pywws,2013-05-25 10:08:00,
2013-05-25 06:14:00,47.7,47.1,29.79,North,0,0.0,0.0,98,0.01,,,0.12,pywws,2013-05-25 10:14:00,
2013-05-25 06:20:00,47.5,46.9,29.80,NW,315,0.0,2.2,98,0.01,,,0.12,pywws,2013-05-25 10:20:00,
2013-05-25 06:25:00,47.7,47.1,29.80,North,0,0.0,0.0,98,0.00,,,0.12,pywws,2013-05-25 10:25:00,
2013-05-25 06:31:00,47.8,47.3,29.80,East,90,0.0,0.0,98,0.00,,,0.12,pywws,2013-05-25 10:31:00,
2013-05-25 06:36:00,47.8,47.3,29.80,SE,135,0.0,0.0,98,0.00,,,0.12,pywws,2013-05-25 10:36:00,
2013-05-25 06:42:00,47.8,47.3,29.80,North,0,0.0,0.0,98,0.01,,,0.13,pywws,2013-05-25 10:42:00,
2013-05-25 06:48:00,47.8,47.3,29.80,North,0,0.0,0.0,98,0.01,,,0.13,pywws,2013-05-25 10:48:00,
2013-05-25 06:53:00,48.0,47.5,29.80,SE,135,0.0,0.0,98,0.01,,,0.13,pywws,2013-05-25 10:53:00,
2013-05-25 06:59:00,48.0,47.5,29.80,North,0,0.0,0.0,98,0.01,,,0.13,pywws,2013-05-25 10:59:00,
2013-05-25 07:04:00,48.2,47.4,29.80,North,0,0.0,0.0,97,0.01,,,0.13,pywws,2013-05-25 11:04:00,
2013-05-25 07:10:00,48.4,47.6,29.80,West,270,0.0,0.0,97,0.01,,,0.13,pywws,2013-05-25 11:10:00,
2013-05-25 07:16:00,48.2,47.4,29.79,North,0,0.0,0.0,97,0.01,,,0.13,pywws,2013-05-25 11:16:00,
2013-05-25 07:21:00,48.6,47.5,29.79,North,0,0.0,0.0,96,0.01,,,0.13,pywws,2013-05-25 11:21:00,
2013-05-25 07:27:00,48.7,47.7,29.79,North,0,0.0,0.0,96,0.01,,,0.13,pywws,2013-05-25 11:27:00,
2013-05-25 07:32:00,48.7,47.7,29.79,East,90,0.0,0.7,96,0.01,,,0.13,pywws,2013-05-25 11:32:00,
2013-05-25 07:38:00,48.7,47.7,29.79,East,90,0.0,0.7,96,0.01,,,0.13,pywws,2013-05-25 11:38:00,
2013-05-25 07:44:00,48.4,47.3,29.79,NW,315,0.0,0.0,96,0.00,,,0.13,pywws,2013-05-25 11:44:00,
2013-05-25 07:49:00,48.2,46.8,29.80,NW,315,0.0,0.0,95,0.00,,,0.13,pywws,2013-05-25 11:49:00,
2013-05-25 07:55:00,48.6,47.2,29.80,West,270,0.0,0.0,95,0.00,,,0.13,pywws,2013-05-25 11:55:00,
2013-05-25 08:00:00,48.4,47.0,29.80,East,90,0.0,0.0,95,0.00,,,0.13,pywws,2013-05-25 12:00:00,
2013-05-25 08:06:00,48.6,47.2,29.80,NW,315,0.0,0.0,95,0.00,,,0.13,pywws,2013-05-25 12:06:00,
2013-05-25 08:12:00,48.6,47.2,29.79,West,270,0.0,0.7,95,0.00,,,0.13,pywws,2013-05-25 12:12:00,
2013-05-25 08:17:00,49.1,48.0,29.79,East,90,0.7,5.4,96,0.00,,,0.13,pywws,2013-05-25 12:17:00,
2013-05-25 08:24:00,49.3,48.2,29.79,East,90,0.0,0.0,96,0.00,,,0.13,pywws,2013-05-25 12:24:00,
2013-05-25 08:29:00,49.3,48.2,29.79,East,90,0.0,0.7,96,0.00,,,0.13,pywws,2013-05-25 12:29:00,
2013-05-25 08:35:00,49.5,48.4,29.79,North,0,0.0,0.0,96,0.00,,,0.13,pywws,2013-05-25 12:35:00,
2013-05-25 08:40:00,49.1,47.7,29.80,North,0,0.0,0.0,95,0.00,,,0.13,pywws,2013-05-25 12:40:00,
2013-05-25 08:46:00,50.4,49.0,29.79,North,0,0.0,0.0,95,0.00,,,0.13,pywws,2013-05-25 12:46:00,
2013-05-25 08:52:00,49.5,48.1,29.79,North,0,0.0,0.0,95,0.00,,,0.13,pywws,2013-05-25 12:52:00,
2013-05-25 08:57:00,49.6,48.3,29.79,West,270,0.0,0.0,95,0.00,,,0.13,pywws,2013-05-25 12:57:00,
2013-05-25 09:03:00,49.6,48.3,29.79,West,270,0.0,0.0,95,0.01,,,0.14,pywws,2013-05-25 13:03:00,
2013-05-25 09:08:00,50.0,48.3,29.79,East,90,0.0,0.0,94,0.01,,,0.14,pywws,2013-05-25 13:08:00,
2013-05-25 09:14:00,50.0,48.3,29.79,NW,315,0.0,3.1,94,0.01,,,0.14,pywws,2013-05-25 13:14:00,
2013-05-25 09:20:00,50.0,48.3,29.78,West,270,0.0,0.7,94,0.01,,,0.14,pywws,2013-05-25 13:20:00,
2013-05-25 09:25:00,50.0,48.3,29.78,North,0,0.0,0.0,94,0.02,,,0.15,pywws,2013-05-25 13:25:00,
2013-05-25 09:32:00,50.7,49.1,29.78,South,180,0.0,0.7,94,0.02,,,0.15,pywws,2013-05-25 13:32:00,
2013-05-25 09:38:00,51.1,49.4,29.78,NE,45,0.0,0.0,94,0.02,,,0.15,pywws,2013-05-25 13:38:00,
2013-05-25 09:44:00,50.4,48.7,29.78,NE,45,0.0,0.7,94,0.02,,,0.15,pywws,2013-05-25 13:44:00,
2013-05-25 09:49:00,50.7,49.1,29.78,NW,315,0.0,0.0,94,0.02,,,0.15,pywws,2013-05-25 13:49:00,
2013-05-25 09:55:00,50.9,49.2,29.78,North,0,0.0,0.0,94,0.02,,,0.15,pywws,2013-05-25 13:55:00,
2013-05-25 10:00:00,50.4,48.4,29.78,East,90,0.0,0.0,93,0.01,,,0.15,pywws,2013-05-25 14:00:00,
2013-05-25 10:06:00,50.0,48.3,29.78,West,270,0.0,0.0,94,0.01,,,0.15,pywws,2013-05-25 14:06:00,
2013-05-25 10:12:00,50.2,48.5,29.78,North,0,0.0,0.0,94,0.01,,,0.15,pywws,2013-05-25 14:12:00,
2013-05-25 10:17:00,50.4,48.7,29.78,NE,45,0.0,0.0,94,0.02,,,0.17,pywws,2013-05-25 14:17:00,
2013-05-25 10:24:00,51.1,49.4,29.77,North,0,0.0,0.0,94,0.02,,,0.17,pywws,2013-05-25 14:24:00,
2013-05-25 10:29:00,50.7,49.1,29.77,North,0,0.0,0.0,94,0.01,,,0.17,pywws,2013-05-25 14:29:00,
2013-05-25 10:35:00,51.8,49.8,29.77,North,0,0.0,0.0,93,0.01,,,0.17,pywws,2013-05-25 14:35:00,
2013-05-25 10:40:00,51.1,49.4,29.77,North,0,0.7,5.4,94,0.01,,,0.17,pywws,2013-05-25 14:40:00,
2013-05-25 10:46:00,50.9,48.9,29.77,NW,315,0.0,0.0,93,0.02,,,0.18,pywws,2013-05-25 14:46:00,
2013-05-25 10:52:00,50.5,48.6,29.76,North,0,0.0,0.7,93,0.02,,,0.18,pywws,2013-05-25 14:52:00,
2013-05-25 10:57:00,51.3,49.3,29.76,South,180,0.0,0.0,93,0.02,,,0.18,pywws,2013-05-25 14:57:00,
2013-05-25 11:03:00,50.9,48.9,29.76,North,0,0.0,0.0,93,0.02,,,0.18,pywws,2013-05-25 15:03:00,
2013-05-25 11:08:00,50.7,48.8,29.76,North,0,0.0,0.0,93,0.02,,,0.18,pywws,2013-05-25 15:08:00,
2013-05-25 11:14:00,50.9,48.9,29.76,NW,315,0.0,0.0,93,0.02,,,0.18,pywws,2013-05-25 15:14:00,
2013-05-25 11:20:00,51.3,49.3,29.76,NW,315,0.0,0.0,93,0.01,,,0.18,pywws,2013-05-25 15:20:00,
2013-05-25 11:25:00,51.1,49.1,29.77,North,0,0.0,0.0,93,0.01,,,0.18,pywws,2013-05-25 15:25:00,
2013-05-25 11:31:00,51.4,49.5,29.76,West,270,0.0,0.0,93,0.01,,,0.18,pywws,2013-05-25 15:31:00,
2013-05-25 11:36:00,51.1,48.8,29.76,East,90,0.0,0.0,92,0.01,,,0.18,pywws,2013-05-25 15:36:00,
2013-05-25 11:42:00,51.3,49.3,29.76,North,0,0.0,0.0,93,0.01,,,0.18,pywws,2013-05-25 15:42:00,
2013-05-25 11:48:00,51.3,49.0,29.76,West,270,0.0,0.0,92,0.00,,,0.18,pywws,2013-05-25 15:48:00,
2013-05-25 11:53:00,52.0,49.7,29.76,West,270,0.0,1.6,92,0.00,,,0.18,pywws,2013-05-25 15:53:00,
2013-05-25 11:59:00,50.7,48.5,29.76,North,0,0.0,0.0,92,0.00,,,0.18,pywws,2013-05-25 15:59:00,
2013-05-25 12:04:00,50.9,48.7,29.76,North,0,0.0,0.0,92,0.00,,,0.18,pywws,2013-05-25 16:04:00,
2013-05-25 12:10:00,51.1,49.1,29.76,NW,315,0.0,0.0,93,0.01,,,0.19,pywws,2013-05-25 16:10:00,
2013-05-25 12:16:00,50.4,48.1,29.76,NE,45,0.0,0.0,92,0.01,,,0.19,pywws,2013-05-25 16:16:00,
2013-05-25 12:21:00,50.7,48.8,29.76,North,0,0.0,0.0,93,0.01,,,0.19,pywws,2013-05-25 16:21:00,
2013-05-25 12:27:00,50.9,48.9,29.75,North,0,0.0,0.0,93,0.01,,,0.19,pywws,2013-05-25 16:27:00,
2013-05-25 12:32:00,50.2,48.2,29.76,North,0,0.0,1.6,93,0.01,,,0.19,pywws,2013-05-25 16:32:00,
2013-05-25 12:38:00,50.7,48.8,29.75,NW,315,0.0,0.0,93,0.01,,,0.19,pywws,2013-05-25 16:38:00,
2013-05-25 12:44:00,50.4,48.4,29.75,South,180,0.0,0.0,93,0.01,,,0.19,pywws,2013-05-25 16:44:00,
2013-05-25 12:49:00,50.4,48.4,29.75,North,0,0.0,0.0,93,0.02,,,0.20,pywws,2013-05-25 16:49:00,
2013-05-25 12:55:00,50.2,48.2,29.75,North,0,0.0,0.0,93,0.02,,,0.20,pywws,2013-05-25 16:55:00,
2013-05-25 13:00:00,50.0,48.1,29.75,North,0,0.0,0.0,93,0.05,,,0.22,pywws,2013-05-25 17:00:00,
2013-05-25 13:06:00,50.2,48.2,29.75,East,90,0.0,0.0,93,0.06,,,0.24,pywws,2013-05-25 17:06:00,
2013-05-25 13:12:00,50.7,49.1,29.75,South,180,0.0,0.0,94,0.06,,,0.25,pywws,2013-05-25 17:12:00,
2013-05-25 13:17:00,50.9,49.2,29.75,North,0,0.0,0.0,94,0.07,,,0.26,pywws,2013-05-25 17:17:00,
2013-05-25 13:23:00,50.9,49.2,29.75,East,90,0.0,0.0,94,0.08,,,0.27,pywws,2013-05-25 17:23:00,
2013-05-25 13:28:00,50.7,49.1,29.76,North,0,0.0,0.0,94,0.08,,,0.27,pywws,2013-05-25 17:28:00,
2013-05-25 13:34:00,50.4,48.4,29.75,East,90,0.0,0.0,93,0.09,,,0.28,pywws,2013-05-25 17:34:00,
2013-05-25 13:40:00,50.4,48.4,29.75,East,90,0.0,0.0,93,0.09,,,0.28,pywws,2013-05-25 17:40:00,
2013-05-25 13:45:00,51.6,49.7,29.75,West,270,0.0,0.0,93,0.09,,,0.28,pywws,2013-05-25 17:45:00,
2013-05-25 13:51:00,50.9,48.9,29.75,NW,315,0.0,0.0,93,0.09,,,0.30,pywws,2013-05-25 17:51:00,
2013-05-25 13:56:00,49.6,47.7,29.75,North,0,0.0,0.0,93,0.09,,,0.30,pywws,2013-05-25 17:56:00,
2013-05-25 14:02:00,50.7,48.8,29.75,West,270,0.0,0.0,93,0.07,,,0.30,pywws,2013-05-25 18:02:00,
2013-05-25 14:08:00,50.2,48.2,29.75,West,270,0.0,0.0,93,0.06,,,0.30,pywws,2013-05-25 18:08:00,
2013-05-25 14:14:00,50.4,48.4,29.76,West,270,0.0,0.7,93,0.06,,,0.31,pywws,2013-05-25 18:14:00,
2013-05-25 14:20:00,50.4,48.4,29.76,North,0,0.0,0.0,93,0.05,,,0.31,pywws,2013-05-25 18:20:00,
2013-05-25 14:25:00,50.4,48.4,29.76,North,0,0.0,0.0,93,0.04,,,0.31,pywws,2013-05-25 18:25:00,
2013-05-25 14:31:00,49.3,47.6,29.76,NW,315,0.0,0.0,94,0.04,,,0.31,pywws,2013-05-25 18:31:00,
2013-05-25 14:36:00,50.5,48.6,29.75,North,0,0.0,0.0,93,0.04,,,0.32,pywws,2013-05-25 18:36:00,
2013-05-25 14:42:00,50.7,48.8,29.76,West,270,0.0,0.0,93,0.04,,,0.32,pywws,2013-05-25 18:42:00,
2013-05-25 14:48:00,49.8,48.2,29.75,West,270,0.0,0.0,94,0.04,,,0.32,pywws,2013-05-25 18:48:00,
2013-05-25 14:53:00,50.2,48.2,29.75,East,90,0.0,0.0,93,0.02,,,0.32,pywws,2013-05-25 18:53:00,
2013-05-25 14:59:00,50.5,48.9,29.75,NW,315,0.0,2.2,94,0.02,,,0.32,pywws,2013-05-25 18:59:00,
2013-05-25 15:04:00,49.8,48.2,29.75,North,0,0.0,0.0,94,0.02,,,0.32,pywws,2013-05-25 19:04:00,
2013-05-25 15:10:00,48.9,47.3,29.75,East,90,0.0,0.0,94,0.02,,,0.32,pywws,2013-05-25 19:10:00,
2013-05-25 15:16:00,48.7,47.1,29.75,South,180,0.0,3.1,94,0.02,,,0.33,pywws,2013-05-25 19:16:00,
2013-05-25 15:21:00,47.8,46.5,29.75,West,270,0.0,0.7,95,0.02,,,0.33,pywws,2013-05-25 19:21:00,
2013-05-25 15:27:00,48.2,46.3,29.75,NW,315,0.0,0.7,93,0.02,,,0.33,pywws,2013-05-25 19:27:00,
2013-05-25 15:32:00,48.2,46.6,29.75,SE,135,0.0,0.0,94,0.02,,,0.33,pywws,2013-05-25 19:32:00,
2013-05-25 15:38:00,48.4,46.7,29.75,NW,315,0.0,0.7,94,0.01,,,0.33,pywws,2013-05-25 19:38:00,
2013-05-25 15:44:00,48.6,46.9,29.75,SW,225,1.6,3.1,94,0.01,,,0.33,pywws,2013-05-25 19:44:00,
2013-05-25 15:49:00,48.0,46.7,29.76,NW,315,0.0,1.6,95,0.01,,,0.33,pywws,2013-05-25 19:49:00,
2013-05-25 15:55:00,47.3,45.7,29.75,West,270,0.7,6.9,94,0.01,,,0.33,pywws,2013-05-25 19:55:00,
2013-05-25 16:00:00,46.8,44.6,29.76,North,0,0.0,0.0,92,0.01,,,0.33,pywws,2013-05-25 20:00:00,
2013-05-25 16:06:00,47.1,45.2,29.76,North,0,0.0,0.0,93,0.01,,,0.33,pywws,2013-05-25 20:06:00,
2013-05-25 16:12:00,47.5,45.6,29.75,North,0,0.0,0.0,93,0.00,,,0.33,pywws,2013-05-25 20:12:00,
2013-05-25 16:17:00,47.5,45.6,29.75,West,270,0.0,0.7,93,0.00,,,0.33,pywws,2013-05-25 20:17:00,
2013-05-25 16:23:00,46.9,45.0,29.76,West,270,0.0,0.0,93,0.00,,,0.33,pywws,2013-05-25 20:23:00,
2013-05-25 16:28:00,46.8,44.6,29.76,East,90,0.0,0.0,92,0.00,,,0.33,pywws,2013-05-25 20:28:00,
2013-05-25 16:34:00,46.2,44.3,29.76,NW,315,0.0,0.0,93,0.00,,,0.33,pywws,2013-05-25 20:34:00,
2013-05-25 16:40:00,45.9,44.0,29.76,West,270,1.6,5.4,93,0.00,,,0.33,pywws,2013-05-25 20:40:00,
2013-05-25 16:45:00,46.0,43.8,29.76,West,270,0.0,0.7,92,0.00,,,0.33,pywws,2013-05-25 20:45:00,
2013-05-25 16:51:00,45.9,43.7,29.76,SE,135,0.0,0.0,92,0.00,,,0.33,pywws,2013-05-25 20:51:00,
2013-05-25 16:56:00,46.2,44.3,29.76,NE,45,0.0,0.0,93,0.00,,,0.33,pywws,2013-05-25 20:56:00,
2013-05-25 17:02:00,45.7,43.8,29.77,NW,315,0.0,1.6,93,0.00,,,0.33,pywws,2013-05-25 21:02:00,
2013-05-25 17:08:00,45.9,44.0,29.76,North,0,0.0,0.0,93,0.00,,,0.33,pywws,2013-05-25 21:08:00,
2013-05-25 17:13:00,45.7,43.5,29.77,West,270,0.0,5.4,92,0.00,,,0.33,pywws,2013-05-25 21:13:00,
2013-05-25 17:19:00,45.7,43.5,29.76,South,180,0.0,0.0,92,0.00,,,0.33,pywws,2013-05-25 21:19:00,
2013-05-25 17:24:00,45.0,42.5,29.77,North,0,0.0,0.0,91,0.00,,,0.33,pywws,2013-05-25 21:24:00,
2013-05-25 17:30:00,45.0,42.5,29.77,North,0,0.0,0.7,91,0.00,,,0.33,pywws,2013-05-25 21:30:00,
2013-05-25 17:36:00,44.8,42.3,29.77,SE,135,0.0,0.0,91,0.00,,,0.33,pywws,2013-05-25 21:36:00,
2013-05-25 17:41:00,44.4,42.2,29.77,NE,45,1.6,9.8,92,0.00,,,0.33,pywws,2013-05-25 21:41:00,
2013-05-25 17:47:00,44.6,41.9,29.77,East,90,0.0,0.0,90,0.00,,,0.33,pywws,2013-05-25 21:47:00,
2013-05-25 17:52:00,43.9,41.4,29.78,North,0,0.0,2.2,91,0.00,,,0.33,pywws,2013-05-25 21:52:00,
2013-05-25 17:58:00,44.1,41.3,29.78,NW,315,0.0,0.0,90,0.00,,,0.33,pywws,2013-05-25 21:58:00,
2013-05-25 18:04:00,43.7,41.0,29.77,North,0,0.0,0.0,90,0.00,,,0.33,pywws,2013-05-25 22:04:00,
2013-05-25 18:09:00,43.7,41.2,29.78,North,0,0.0,2.2,91,0.00,,,0.33,pywws,2013-05-25 22:09:00,
2013-05-25 18:15:00,43.3,40.6,29.78,North,0,0.7,5.4,90,0.00,,,0.33,pywws,2013-05-25 22:15:00,
2013-05-25 18:20:00,43.3,40.9,29.78,NW,315,0.0,0.7,91,0.00,,,0.33,pywws,2013-05-25 22:20:00,
2013-05-25 18:26:00,43.0,40.3,29.78,East,90,3.8,10.7,90,0.00,,,0.33,pywws,2013-05-25 22:26:00,
2013-05-25 18:32:00,42.8,40.1,29.78,NW,315,0.0,0.7,90,0.00,,,0.33,pywws,2013-05-25 22:32:00,
2013-05-25 18:37:00,42.4,40.0,29.78,North,0,0.0,0.0,91,0.00,,,0.33,pywws,2013-05-25 22:37:00,
2013-05-25 18:43:00,42.4,40.0,29.78,NW,315,5.4,9.2,91,0.00,,,0.33,pywws,2013-05-25 22:43:00,
2013-05-25 18:48:00,42.4,40.0,29.78,North,0,0.0,0.7,91,0.00,,,0.33,pywws,2013-05-25 22:48:00,
2013-05-25 18:54:00,42.3,40.1,29.79,North,0,0.0,3.1,92,0.00,,,0.33,pywws,2013-05-25 22:54:00,
2013-05-25 19:00:00,42.1,39.9,29.79,West,270,0.0,2.2,92,0.00,,,0.33,pywws,2013-05-25 23:00:00,
2013-05-25 19:05:00,42.1,39.9,29.79,North,0,0.0,0.0,92,0.01,,,0.34,pywws,2013-05-25 23:05:00,
2013-05-25 19:11:00,41.7,39.8,29.79,West,270,0.0,0.0,93,0.01,,,0.34,pywws,2013-05-25 23:11:00,
2013-05-25 19:16:00,41.9,40.0,29.79,West,270,0.0,0.0,93,0.01,,,0.34,pywws,2013-05-25 23:16:00,
2013-05-25 19:22:00,41.9,40.0,29.79,West,270,0.0,0.0,93,0.01,,,0.34,pywws,2013-05-25 23:22:00,
2013-05-25 19:28:00,41.7,39.8,29.79,North,0,0.0,0.7,93,0.01,,,0.34,pywws,2013-05-25 23:28:00,
2013-05-25 19:33:00,41.5,39.7,29.79,North,0,0.0,0.0,93,0.01,,,0.34,pywws,2013-05-25 23:33:00,
2013-05-25 19:39:00,41.5,39.7,29.79,South,180,0.0,0.0,93,0.01,,,0.34,pywws,2013-05-25 23:39:00,
2013-05-25 19:44:00,41.5,39.7,29.79,West,270,0.0,0.0,93,0.01,,,0.34,pywws,2013-05-25 23:44:00,
2013-05-25 19:50:00,41.5,39.7,29.79,North,0,0.0,0.0,93,0.01,,,0.34,pywws,2013-05-25 23:50:00,
2013-05-25 19:56:00,41.5,39.7,29.79,South,180,0.7,2.2,93,0.01,,,0.34,pywws,2013-05-25 23:56:00,
2013-05-25 20:01:00,41.4,39.8,29.79,North,0,0.7,4.5,94,0.01,,,0.34,pywws,2013-05-26 00:01:00,
2013-05-25 20:07:00,41.4,39.8,29.79,West,270,0.0,0.0,94,0.00,,,0.34,pywws,2013-05-26 00:07:00,
2013-05-25 20:13:00,41.4,39.8,29.79,NE,45,0.0,0.0,94,0.00,,,0.34,pywws,2013-05-26 00:13:00,
2013-05-25 20:19:00,41.5,39.9,29.79,North,0,0.0,0.0,94,0.01,,,0.35,pywws,2013-05-26 00:19:00,
2013-05-25 20:24:00,41.5,39.9,29.79,North,0,0.0,0.0,94,0.01,,,0.35,pywws,2013-05-26 00:24:00,
2013-05-25 20:30:00,41.4,39.8,29.79,South,180,0.0,0.0,94,0.01,,,0.35,pywws,2013-05-26 00:30:00,
2013-05-25 20:36:00,41.5,39.7,29.79,North,0,0.0,0.0,93,0.01,,,0.35,pywws,2013-05-26 00:36:00,
2013-05-25 20:41:00,41.4,39.8,29.79,North,0,0.0,3.1,94,0.01,,,0.35,pywws,2013-05-26 00:41:00,
2013-05-25 20:47:00,41.5,39.7,29.79,North,0,0.0,0.7,93,0.01,,,0.35,pywws,2013-05-26 00:47:00,
2013-05-25 20:52:00,41.5,39.7,29.79,NE,45,0.0,0.7,93,0.01,,,0.35,pywws,2013-05-26 00:52:00,
2013-05-25 20:58:00,41.4,39.5,29.79,North,0,0.0,0.0,93,0.01,,,0.35,pywws,2013-05-26 00:58:00,
2013-05-25 21:04:00,41.5,39.7,29.79,North,0,0.0,0.0,93,0.01,,,0.35,pywws,2013-05-26 01:04:00,
2013-05-25 21:09:00,41.4,39.5,29.79,East,90,0.0,1.6,93,0.01,,,0.35,pywws,2013-05-26 01:09:00,
2013-05-25 21:15:00,41.5,39.7,29.79,SE,135,0.0,0.0,93,0.01,,,0.35,pywws,2013-05-26 01:15:00,
2013-05-25 21:20:00,41.5,39.7,29.79,West,270,0.0,0.0,93,0.00,,,0.35,pywws,2013-05-26 01:20:00,
2013-05-25 21:26:00,41.5,39.7,29.79,West,270,0.0,0.0,93,0.00,,,0.35,pywws,2013-05-26 01:26:00,
2013-05-25 21:32:00,41.5,39.7,29.79,NW,315,0.0,0.0,93,0.00,,,0.35,pywws,2013-05-26 01:32:00,
2013-05-25 21:37:00,41.5,39.4,29.79,North,0,0.0,1.6,92,0.00,,,0.35,pywws,2013-05-26 01:37:00,
2013-05-25 21:43:00,41.5,39.4,29.80,SE,135,0.0,3.1,92,0.00,,,0.35,pywws,2013-05-26 01:43:00,
2013-05-25 21:48:00,41.5,39.4,29.79,North,0,0.0,3.1,92,0.00,,,0.35,pywws,2013-05-26 01:48:00,
2013-05-25 21:54:00,41.5,39.4,29.79,East,90,0.0,0.0,92,0.00,,,0.35,pywws,2013-05-26 01:54:00,
2013-05-25 22:00:00,41.4,38.9,29.79,NW,315,0.0,0.0,91,0.00,,,0.35,pywws,2013-05-26 02:00:00,
2013-05-25 22:05:00,41.5,39.1,29.80,North,0,0.0,0.0,91,0.00,,,0.35,pywws,2013-05-26 02:05:00,
2013-05-25 22:11:00,41.5,38.8,29.80,East,90,0.0,0.0,90,0.00,,,0.35,pywws,2013-05-26 02:11:00,
2013-05-25 22:16:00,41.5,38.8,29.79,North,0,0.0,0.0,90,0.00,,,0.35,pywws,2013-05-26 02:16:00,
2013-05-25 22:22:00,41.5,38.5,29.79,North,0,0.0,0.7,89,0.00,,,0.35,pywws,2013-05-26 02:22:00,
2013-05-25 22:28:00,41.4,38.4,29.79,North,0,0.0,0.0,89,0.00,,,0.35,pywws,2013-05-26 02:28:00,
2013-05-25 22:33:00,41.4,38.7,29.79,North,0,0.0,1.6,90,0.00,,,0.35,pywws,2013-05-26 02:33:00,
2013-05-25 22:39:00,41.4,38.7,29.79,North,0,0.0,0.0,90,0.00,,,0.35,pywws,2013-05-26 02:39:00,
2013-05-25 22:44:00,41.4,38.7,29.79,SE,135,0.0,1.6,90,0.00,,,0.35,pywws,2013-05-26 02:44:00,
2013-05-25 22:50:00,41.5,38.5,29.78,West,270,0.0,0.7,89,0.00,,,0.35,pywws,2013-05-26 02:50:00,
2013-05-25 22:56:00,41.5,38.5,29.78,West,270,0.0,2.2,89,0.00,,,0.35,pywws,2013-05-26 02:56:00,
2013-05-25 23:01:00,41.7,38.4,29.78,West,270,0.0,0.0,88,0.00,,,0.35,pywws,2013-05-26 03:01:00,
2013-05-25 23:07:00,41.9,38.3,29.78,North,0,0.0,1.6,87,0.00,,,0.35,pywws,2013-05-26 03:07:00,
2013-05-25 23:12:00,41.5,38.3,29.78,NW,315,0.0,0.0,88,0.00,,,0.35,pywws,2013-05-26 03:12:00,
2013-05-25 23:18:00,41.5,38.3,29.78,South,180,0.0,0.0,88,0.00,,,0.35,pywws,2013-05-26 03:18:00,
2013-05-25 23:24:00,41.7,38.1,29.78,West,270,0.7,4.5,87,0.00,,,0.35,pywws,2013-05-26 03:24:00,
2013-05-25 23:29:00,41.5,37.7,29.77,South,180,0.0,0.0,86,0.00,,,0.35,pywws,2013-05-26 03:29:00,
2013-05-25 23:35:00,41.7,38.1,29.78,North,0,5.4,10.7,87,0.00,,,0.35,pywws,2013-05-26 03:35:00,
2013-05-25 23:40:00,41.9,38.0,29.77,North,0,0.7,2.2,86,0.00,,,0.35,pywws,2013-05-26 03:40:00,
2013-05-25 23:46:00,41.9,38.0,29.77,NE,45,0.0,0.0,86,0.00,,,0.35,pywws,2013-05-26 03:46:00,
2013-05-25 23:52:00,42.1,38.2,29.77,North,0,0.0,0.0,86,0.00,,,0.35,pywws,2013-05-26 03:52:00,
2013-05-25 23:57:00,42.1,38.2,29.77,East,90,0.0,0.0,86,0.00,,,0.35,pywws,2013-05-26 03:57:00,